Kalmar, Sweden

10:17 PM CEST on September 23, 2017 (GMT +0200)
Kalmar

Weather History for ESMQ - March, 2013

Change the Weather History Date:

Wednesday, March 6, 2013

  Actual Average Record
Temperature  
Mean Temperature 36 °F -  
Max Temperature 50 °F - - ()
Min Temperature 23 °F - - ()
Degree Days  
Heating Degree Days 28    
Moisture  
Dew Point 28 °F    
Average Humidity 74    
Maximum Humidity 100    
Minimum Humidity 46    
Precipitation  
Precipitation 0.00 in - - ()
Sea Level Pressure  
Sea Level Pressure 29.79 in    
Wind  
Wind Speed 3 mph ()    
Max Wind Speed 9 mph    
Max Gust Speed -    
Visibility 4.2 miles    
Events      
T = Trace of Precipitation, MM = Missing Value Source: Averaged Metar Reports

Daily Weather History Graph

Daily Weather History Graph

Search for Another Location

Airport or City:

Trip Planner

Search our weather history database for the weather conditions in past years. The results will help you decide how hot, cold, wet, or windy it might be!

Date:

Astronomy

Mar. 06, 2013 Rise Set
Actual Time 6:34 AM CET 5:38 PM CET
Civil Twilight 5:56 AM CET 6:16 PM CET
Nautical Twilight 5:12 AM CET 7:00 PM CET
Astronomical Twilight 4:27 AM CET 7:45 PM CET
Moon 3:19 AM CET (3/6) 11:10 AM CET (3/6)
Length of Visible Light 12h 20m
Length of Day
11h 04m
Waning Crescent, 33% of the Moon is Illuminated
Mar 6
Waning Crescent
Mar 11
New
Mar 19
First Quarter
Mar 27
Full
Apr 3
Last Quarter

Hourly Weather History & Observations

Time (CET) Temp. Windchill Dew Point Humidity Pressure Visibility Wind Dir Wind Speed Gust Speed Precip Events Conditions
12:20 AM 28.4 °F 22.2 °F 26.6 °F 93% 29.77 in 6.2 mi South 5.8 mph - N/A   Unknown
12:50 AM 26.6 °F 22.6 °F 24.8 °F 93% 29.77 in 5.0 mi South 3.5 mph - N/A   Mist
1:20 AM 24.8 °F - 24.8 °F 100% 29.77 in 4.3 mi South 2.3 mph - N/A   Mist
1:50 AM 24.8 °F 19.1 °F 24.8 °F 100% 29.77 in - South 4.6 mph - N/A   Mist
2:20 AM 24.8 °F 19.1 °F 24.8 °F 100% 29.77 in 3.1 mi South 4.6 mph - N/A   Mist
2:50 AM 24.8 °F 17.9 °F 24.8 °F 100% 29.77 in - South 5.8 mph - N/A   Mist
3:20 AM 26.6 °F 20.0 °F 26.6 °F 100% 29.74 in 3.1 mi South 5.8 mph - N/A   Mist
3:50 AM 24.8 °F 19.1 °F 24.8 °F 100% 29.74 in - SSE 4.6 mph - N/A   Mist
4:20 AM 24.8 °F 20.5 °F 24.8 °F 100% 29.74 in 1.7 mi SSE 3.5 mph - N/A   Mist
4:50 AM 24.8 °F 20.5 °F 24.8 °F 100% 29.74 in 1.5 mi SSE 3.5 mph - N/A   Unknown
5:20 AM 23.0 °F - 23.0 °F 100% 29.74 in 2.2 mi Calm Calm - N/A   Unknown
5:50 AM 24.8 °F - 24.8 °F 100% 29.74 in 3.1 mi South 2.3 mph - N/A   Mist
6:20 AM 24.8 °F - 23.0 °F 93% 29.74 in 3.1 mi West 1.2 mph - N/A   Mist
6:50 AM 24.8 °F - 24.8 °F 100% 29.74 in 2.5 mi Variable 2.3 mph - N/A   Mist
7:20 AM 24.8 °F - 23.0 °F 93% 29.74 in 3.7 mi Calm Calm - N/A   Mist
7:50 AM 26.6 °F - 26.6 °F 100% 29.74 in 3.1 mi West 1.2 mph - N/A   Mist
8:20 AM 30.2 °F 26.7 °F 28.4 °F 93% 29.74 in 4.3 mi WSW 3.5 mph - N/A   Unknown
8:50 AM 33.8 °F - 30.2 °F 87% 29.74 in 5.0 mi Variable 1.2 mph - N/A   Mist
9:20 AM 35.6 °F - 32.0 °F 87% 29.74 in 5.6 mi Variable 2.3 mph - N/A   Mist
9:50 AM 37.4 °F 34.9 °F 32.0 °F 81% 29.74 in - South 3.5 mph - N/A   Clear
10:20 AM 39.2 °F 35.9 °F 32.0 °F 75% 29.77 in 5.6 mi SW 4.6 mph - N/A   Mist
10:50 AM 42.8 °F - 33.8 °F 70% 29.77 in - Variable 2.3 mph - N/A   Clear
11:20 AM 44.6 °F - 33.8 °F 66% 29.77 in - Calm Calm - N/A   Clear
11:50 AM 44.6 °F - 33.8 °F 66% 29.74 in - Variable 2.3 mph - N/A   Clear
12:20 PM 46.4 °F - 33.8 °F 62% 29.74 in - Calm Calm - N/A   Clear
12:50 PM 48.2 °F - 32.0 °F 54% 29.74 in - Variable 2.3 mph - N/A   Clear
1:20 PM 48.2 °F - 32.0 °F 54% 29.74 in - Variable 2.3 mph - N/A   Clear
1:50 PM 50.0 °F - 35.6 °F 58% 29.74 in - Variable 2.3 mph - N/A   Clear
2:20 PM 50.0 °F - 33.8 °F 54% 29.74 in - ESE 4.6 mph - N/A   Clear
2:50 PM 48.2 °F - 33.8 °F 58% 29.77 in - East 4.6 mph - N/A   Clear
3:20 PM 48.2 °F - 33.8 °F 58% 29.77 in - ENE 4.6 mph - N/A   Clear
3:50 PM 46.4 °F 43.5 °F 32.0 °F 57% 29.77 in - NE 5.8 mph - N/A   Clear
4:20 PM 44.6 °F 42.2 °F 30.2 °F 57% 29.77 in - NE 4.6 mph - N/A   Clear
4:50 PM 44.6 °F 41.4 °F 30.2 °F 57% 29.80 in - NNE 5.8 mph - N/A   Clear
5:20 PM 42.8 °F 40.1 °F 30.2 °F 61% 29.80 in - NNE 4.6 mph - N/A   Clear
5:50 PM 41.0 °F 39.0 °F 30.2 °F 65% 29.80 in - NNE 3.5 mph - N/A   Clear
6:20 PM 41.0 °F 39.0 °F 30.2 °F 65% 29.83 in - NNE 3.5 mph - N/A   Clear
6:50 PM 41.0 °F 39.0 °F 26.6 °F 57% 29.83 in - NNE 3.5 mph - N/A   Clear
7:20 PM 42.8 °F 38.6 °F 23.0 °F 46% 29.86 in - North 6.9 mph - N/A   Clear
7:50 PM 41.0 °F 38.0 °F 23.0 °F 49% 29.86 in - North 4.6 mph - N/A   Clear
8:20 PM 41.0 °F 38.0 °F 23.0 °F 49% 29.89 in - North 4.6 mph - N/A   Clear
8:50 PM 41.0 °F 38.0 °F 24.8 °F 53% 29.89 in - North 4.6 mph - N/A   Clear
9:20 PM 41.0 °F 38.0 °F 24.8 °F 53% 29.89 in - North 4.6 mph - N/A   Clear
9:50 PM 39.2 °F 37.0 °F 24.8 °F 56% 29.92 in - North 3.5 mph - N/A   Clear
10:20 PM 39.2 °F 35.0 °F 24.8 °F 56% 29.92 in 6.2 mi North 5.8 mph - N/A   Scattered Clouds
10:50 PM 39.2 °F 34.2 °F 24.8 °F 56% 29.92 in 6.2 mi NNE 6.9 mph - N/A   Partly Cloudy
11:20 PM 39.2 °F 33.0 °F 24.8 °F 56% 29.92 in 6.2 mi NNE 9.2 mph - N/A   Scattered Clouds
11:50 PM 37.4 °F 31.4 °F 24.8 °F 60% 29.95 in 6.2 mi NNE 8.1 mph - N/A   Scattered Clouds